RH
44 36 27 22 26 44 49 51 43 36 40 44 44 51 40 38 44 36 36 44 40 38 44 35 36 35 42 34 26 30 29 32 40 35 37 30 34 44 38 50 35 44 44 28
51 43 34 24 34 52 55 53 48 54 44 39 46 44 44 37 42 43 34 39 41 32 38 42 33 40 44 37 30 28 35 30 34 30 45 34 26 22 24 43 45 43 53 32
61 50 46 30 33 54 59 55 57 73 56 34 46 44 44 39 40 42 39 38 41 35 27 32 34 37 39 35 31 26 28 29 29 38 38 51 59 42 31 34 47 40 33 24
66 60 52 40 41 62 63 59 46 60 58 44 47 48 41 42 42 34 49 41 31 34 33 36 38 43 43 34 28 27 28 30 30 33 38 52 55 46 39 37 33 38 30 30
73 64 59 48 52 74 69 54 46 49 54 48 50 49 45 45 44 37 49 50 38 38 37 35 43 45 45 42 40 33 34 40 37 35 34 37 37 39 33 30 32 35 29 32
77 71 56 49 64 85 60 57 52 62 57 53 56 45 48 50 47 41 45 42 42 39 48 45 45 49 62 53 51 48 47 49 43 40 35 34 35 30 26 25 26 28 30 26
78 69 53 56 67 73 55 65 63 72 61 53 44 51 55 58 38 61 55 48 48 50 45 41 38 39 47 51 51 50 54 50 45 48 45 47 25 24 23 23 22 22 24 27
76 62 50 73 87 85 66 75 79 76 76 52 54 54 56 49 41 67 56 52 55 48 40 37 38 42 43 47 46 45 45 44 48 60 44 31 28 27 25 25 26 26 26 26
69 58 57 91 98 90 75 70 74 94 77 65 47 50 59 51 57 80 59 57 51 47 43 42 38 43 33 42 42 36 38 44 48 46 55 56 36 31 27 25 30 28 28 29
69 54 74 90 90 79 82 85 88 99 79 75 67 51 50 52 64 81 57 53 46 43 47 49 43 41 34 46 45 47 48 50 54 52 57 46 32 29 27 31 39 35 34 32
63 46 69 88 95 84 85 84 92 91 79 64 66 59 47 57 72 69 58 55 49 49 48 48 43 48 42 37 34 39 39 47 53 52 62 55 29 29 32 40 36 32 32 33
55 45 78 88 92 88 83 91 79 91 98 74 64 61 51 51 67 53 51 47 44 42 44 41 47 49 48 39 42 32 43 38 45 39 44 36 33 32 32 33 33 33 35 37
59 73 83 90 85 82 85 91 62 75 80 69 60 66 53 48 49 55 59 53 52 45 44 43 46 48 43 47 40 39 36 35 37 37 29 35 37 35 37 38 39 40 42 46
82 86 91 80 87 85 93 95 95 95 76 70 63 56 49 43 44 46 48 56 50 47 45 44 44 47 39 46 40 45 40 39 36 37 35 37 39 44 45 43 45 47 51 57
87 79 75 85 92 92 97 93 89 82 60 60 64 56 50 41 36 38 44 47 47 48 49 47 49 44 45 47 43 42 38 38 42 46 45 41 46 46 44 46 47 50 55 56
85 85 94 90 87 90 97 98 84 69 60 54 62 62 54 46 42 38 39 44 47 51 50 52 47 46 47 51 48 41 42 41 42 45 45 45 45 44 46 50 54 56 58 60
96 93 89 87 89 92 95 90 74 68 61 60 67 66 61 58 50 48 46 46 53 54 51 54 51 50 53 54 52 47 44 43 43 41 44 52 54 55 57 57 60 61 62 66
87 89 89 90 89 95 93 79 69 64 63 64 76 72 65 61 64 58 53 59 61 62 58 58 61 60 60 59 52 49 47 46 46 48 53 57 59 62 64 65 65 67 71 74
84 86 86 91 95 97 91 78 72 64 59 83 86 75 69 65 67 63 62 64 69 63 66 68 66 69 65 58 54 51 52 55 57 59 60 64 66 68 69 70 74 78 80 79
82 82 86 96 96 94 89 82 75 71 83 93 84 81 74 65 69 71 69 69 72 75 73 72 71 69 64 63 61 61 63 65 65 67 70 73 73 75 79 83 85 81 79 75
89 87 93 98 93 89 87 84 79 85 96 88 85 89 85 79 78 77 83 84 84 81 78 77 74 71 68 65 66 68 70 72 72 72 74 77 81 85 87 85 80 74 66 60
83 79 84 88 92 93 89 80 85 95 95 87 82 80 81 82 82 86 89 85 82 79 74 76 70 68 66 70 73 76 78 75 74 75 79 85 86 86 85 77 72 66 60 53
76 80 88 93 93 95 93 82 81 94 88 85 80 78 76 76 76 77 77 78 80 70 76 69 69 72 76 82 82 78 76 78 80 84 87 89 85 79 73 68 63 59 53 49
86 90 95 95 94 97 95 95 93 89 86 81 79 79 78 76 76 77 75 79 76 80 80 72 80 83 84 82 79 81 84 85 89 89 82 79 76 73 65 58 56 53 46 39
95 97 98 99 98 96 95 93 90 87 85 81 79 78 79 82 82 82 85 88 88 85 83 85 84 84 85 87 90 93 92 91 89 85 82 79 74 64 60 58 50 42 37 36
98 98 98 98 97 97 95 93 92 91 90 90 90 91 91 94 94 93 92 93 90 88 88 87 86 90 92 95 96 93 93 94 90 85 79 75 67 61 53 44 41 42 43 44
97 97 98 98 98 97 97 97 97 98 96 95 94 95 95 94 95 95 94 92 90 93 94 96 98 98 98 97 96 94 93 88 85 78 70 62 58 51 49 49 50 49 52 54